Hourly Data Report for October 19, 2016

All times are specified in Local Standard Time (LST). Add 1 hour to adjust for Daylight Saving Time where and when it is observed.

OTTAWA INTL A
ONTARIO

45°19'00.000" N
75°40'00.000" W
114.90 m
6106001
71628
YOW

Download Data

Hourly Data (October 2016)
Hourly Data Report for October 19, 2016
Temp Definition
°C
Dew Point Temp Definition
°C
Rel Hum Definition
%
Wind Dir Definition
10's deg

Wind Spd Definition
km/h
Visibility Definition
km
Stn Press Definition
kPa
Hmdx Definition


Wind Chill Definition


Weather Definition


TIME
00:00 Legend Double Dagger 12.3 9.7 84 28 10 24.1 99.41     LegendNANA
01:00 Legend Double Dagger 11.7 9.6 87 28 10 24.1 99.53     Clear
02:00 Legend Double Dagger 10.9 9.7 92 27 8 24.1 99.60     LegendNANA
03:00 Legend Double Dagger 9.7 8.9 95 24 9 24.1 99.70     LegendNANA
04:00 Legend Double Dagger 10.6 10.0 96 28 9 24.1 99.77     Mostly Cloudy
05:00 Legend Double Dagger 11.1 10.0 93 27 10 24.1 99.86     LegendNANA
06:00 Legend Double Dagger 11.8 10.2 90 29 12 24.1 99.94     LegendNANA
07:00 Legend Double Dagger 11.9 10.0 88 27 15 24.1 100.07     Clear
08:00 Legend Double Dagger 12.4 9.4 82 27 18 24.1 100.17     LegendNANA
09:00 Legend Double Dagger 12.7 7.6 71 29 26 24.1 100.25     LegendNANA
10:00 Legend Double Dagger 13.9 7.0 63 30 19 24.1 100.32     Clear
11:00 Legend Double Dagger 14.4 6.3 58 27 18 24.1 100.39     LegendNANA
12:00 Legend Double Dagger 15.3 5.6 52 27 12 24.1 100.41     LegendNANA
13:00 Legend Double Dagger 16.3 6.0 50 30 19 24.1 100.45     Clear
14:00 Legend Double Dagger 16.5 5.6 48 29 17 24.1 100.45     LegendNANA
15:00 Legend Double Dagger 16.4 6.1 50 29 13 24.1 100.48     LegendNANA
16:00 Legend Double Dagger 16.1 6.1 51 29 8 24.1 100.50     Clear
17:00 Legend Double Dagger 14.4 6.1 57 26 3 24.1 100.56     LegendNANA
18:00 Legend Double Dagger 11.4 6.4 71 10 5 24.1 100.58     LegendNANA
19:00 Legend Double Dagger 10.8 5.6 70 12 8 24.1 100.61     Clear
20:00 Legend Double Dagger 10.1 5.5 73 14 9 24.1 100.64     LegendNANA
21:00 Legend Double Dagger 10.6 6.2 74 18 8 24.1 100.68     LegendNANA
22:00 Legend Double Dagger 9.5 7.6 88 18 9 24.1 100.72     Mainly Clear
23:00 Legend Double Dagger 9.6 9.0 96 19 11 24.1 100.72     LegendNANA

Notes on Data Quality.

Legend

  • E = Estimated
  • M = Missing
  • NA = Not Available
  • ‡ = Partner data that is not subject to review by the National Climate Archives
Date modified: